TIME,DELAY(SENSOR),PRES,OXYGEN,RAWTEMP,T(OPTODE),TCPHASE,FLUOR,BETA(BETA700),BETA(BETA412),BETA(BETA440),CDOM,C(CSC),ED(ED412.20),ED(ED444.00),ED(ED489.60),ED(ED554.30),LU(LU412.10),LU(LU443.90),LU(LU489.70),LU(LU554.70),COMP,TILTX,TILTY,CHECK
1354331943,5807,881.5399780273438000,32.8246116638183600,558.7271728515625000,4.5253348350524900,56.6200904846191400,55,100,100,78,82,15549,0,0,0,0,2147121846,2147770304,2147577024,2147570377,494,3,13,18979
1354335539,5811,957.1500244140625000,39.2067489624023440,564.6721801757812000,4.3410029411315920,55.6768302917480500,54,98,99,78,83,15549,0,0,0,0,2147123465,2147774592,2147570240,2147569252,79,3,13,51229
1354339139,5808,962.7800292968750000,39.5783996582031250,565.7001953125000000,4.3091011047363280,55.6293907165527340,55,100,103,77,83,15549,0,0,0,0,2147125906,2147772169,2147575442,2147569901,2738,3,13,1872
1354342739,5810,986.4099731445312000,42.3208389282226560,568.1494750976562000,4.2330489158630370,55.2513694763183600,55,97,101,77,83,15546,0,0,0,0,2147124022,2147777270,2147572553,2147570432,3542,3,13,1433
1354346339,5810,981.2600097656250000,42.1871490478515600,568.6315917968750000,4.2180771827697750,55.2798805236816400,55,98,101,78,81,15546,0,0,0,0,2147122944,2147774290,2147573769,2147571456,157,2,13,50594
1354349939,5808,981.4299926757812000,42.2645416259765600,569.9487304687500000,4.1771559715271000,55.2793388366699200,55,100,101,78,81,15549,0,0,0,0,2147120905,2147771602,2147573494,2147569161,91,2,13,22185
1354353539,5813,988.7399902343750000,42.1055107116699200,569.7918090820312000,4.1820302009582520,55.3035583496093750,54,100,100,79,81,15547,0,0,0,0,2147122130,2147776758,2147572891,2147569810,7,3,13,27344
1354357139,5809,983.3400268554688000,41.9898414611816400,569.9921264648438000,4.1758079528808590,55.3209304809570300,55,99,100,77,80,15544,0,0,0,0,2147122148,2147772269,2147573037,2147567497,430,3,13,47197
1354360739,5806,986.5100097656250000,42.1279716491699200,570.0891113281250000,4.1727919578552250,55.2995796203613300,55,99,101,78,82,15546,0,0,0,0,2147124004,2147770660,2147572992,2147567606,775,3,13,2407
1354364339,5808,994.7100219726562000,41.8772201538085940,569.9957885742188000,4.1756920814514160,55.3390617370605500,55,99,101,78,83,15546,0,0,0,0,2147122057,2147774418,2147573531,2147567268,315,2,13,7141
1354367939,5809,992.6500244140625000,41.9625205993652340,569.9876098632812000,4.1759448051452640,55.3234710693359400,55,99,101,78,82,15544,0,0,0,0,2147125385,2147774244,2147570880,2147567936,201,3,13,54506
1354371539,5809,1001.1300048828125000,41.5472297668457000,569.2775268554688000,4.1980109214782715,55.3798294067382800,55,99,100,76,83,15544,0,0,0,0,2147124132,2147768896,2147575350,2147569417,225,3,13,58786
1354375139,5809,1005.8900146484375000,41.3191604614257800,568.4553833007812000,4.2235507965087890,55.4005012512207000,55,99,99,79,82,15544,0,0,0,0,2147121874,2147775497,2147570852,2147570678,371,3,13,1693
1354378739,5809,1001.0399780273438000,40.9906196594238300,568.5753784179688000,4.2198238372802730,55.4542617797851560,55,100,100,78,82,15541,0,0,0,0,2147123190,2147776649,2147575698,2147568667,56,3,13,38267
1354382339,5811,1005.0399780273438000,40.8390693664550800,568.6173706054688000,4.2185192108154300,55.4773292541503900,56,97,100,78,82,15538,0,0,0,0,2147122249,2147779419,2147568356,2147568996,515,3,13,54362
1354385939,5809,1006.8800048828125000,40.8905105590820300,568.6494140625000000,4.2175240516662600,55.4716606140136700,55,101,102,78,81,15539,0,0,0,0,2147121883,2147770733,2147574491,2147568420,413,3,13,21166
1354389539,5813,1003.6500244140625000,40.9393615722656250,568.6005249023438000,4.2190418243408200,55.4582099914550800,55,99,100,78,83,15539,0,0,0,0,2147124946,2147771712,2147575597,2147570916,55,3,13,63466
1354393139,5812,1002.0300292968750000,41.1355285644531250,568.7363281250000000,4.2148251533508300,55.4362907409668000,55,97,101,79,82,15538,0,0,0,0,2147125485,2147771474,2147571456,2147568000,595,2,13,55682
1354396739,5809,1011.0700073242188000,40.9608383178710940,568.5120849609375000,4.2217860221862790,55.4536285400390600,54,98,101,78,83,15535,0,0,0,0,2147124013,2147765741,2147576969,2147566107,238,3,13,11319
1354400339,5808,1004.2399902343750000,41.2107810974121100,568.9580078125000000,4.2079367637634280,55.4254302978515600,54,98,100,78,83,15539,0,0,0,0,2147127926,2147777005,2147568594,2147571885,642,3,13,29661
1354403939,5811,1002.2999877929688000,41.1330795288085940,569.6074829101562000,4.1877560615539550,55.4452400207519500,55,99,100,79,82,15537,0,0,0,0,2147122441,2147775899,2147572297,2147566628,26,3,13,38670
1354407539,5810,996.5700073242188000,41.3564987182617200,570.1428833007812000,4.1711177825927730,55.4113502502441400,54,99,101,78,82,15536,0,0,0,0,2147122112,2147775981,2147572580,2147567040,71,3,13,12568
1354411139,5811,1000.3499755859375000,41.7468795776367200,570.2689819335938000,4.1672019958496090,55.3599891662597660,55,97,100,78,81,15530,0,0,0,0,2147124745,2147774866,2147570633,2147570038,3438,2,13,25683
1354414739,5808,998.8800048828125000,41.7500305175781250,570.3660888671875000,4.1641831398010250,55.3567695617675800,54,99,102,77,82,15533,0,0,0,0,2147125028,2147779072,2147574080,2147569673,3276,3,13,4214
1354418339,5812,995.8300170898438000,41.6940612792968750,570.8256835937500000,4.1498990058898930,55.3756217956543000,55,107,100,77,82,15535,0,0,0,0,2147122157,2147773997,2147575241,2147571584,3368,2,13,52627
1354421939,5811,1003.2399902343750000,41.8434410095214840,570.1115722656250000,4.1720919609069820,55.3448295593261700,54,98,100,77,81,15532,0,0,0,0,2147119698,2147772205,2147569188,2147567606,2974,2,13,10533
1354425539,5808,1009.3099975585938000,41.2491798400878900,569.7089843750000000,4.1846032142639160,55.4240608215332000,55,99,100,78,81,15532,0,0,0,0,2147123309,2147777846,2147574418,2147569097,591,3,13,63786
1354429139,5808,1003.3699951171875000,41.4352607727050800,569.2122192382812000,4.2000408172607420,55.3966407775878900,55,100,99,78,83,15518,0,0,0,0,2147123510,2147777225,2147576813,2147567515,176,3,13,8244
1354432739,5811,1005.4099731445312000,41.2215614318847660,569.3651123046875000,4.1952900886535645,55.4242706298828100,54,101,100,78,82,15534,0,0,0,0,2147124086,2147769773,2147573129,2147571986,56,3,13,8203
1354436339,5810,1000.3699951171875000,41.0821113586425800,569.7717285156250000,4.1826548576354980,55.4546585083007800,55,96,101,78,82,15532,0,0,0,0,2147125869,2147776685,2147576932,2147568923,767,3,13,54969
1354439939,5809,1005.1099853515625000,41.7181892395019500,569.9017944335938000,4.1786141395568850,55.3595390319824200,54,98,100,79,82,15533,0,0,0,0,2147123337,2147771867,2147573101,2147570340,3193,3,13,16820
1354443539,5809,1002.4600219726562000,41.6990699768066400,570.1871948242188000,4.1697430610656740,55.3678092956543000,54,97,100,78,82,15531,0,0,0,0,2147123776,2147775963,2147580461,2147570011,251,3,13,50361
1354447139,5811,998.0399780273438000,41.6796188354492200,570.5123291015625000,4.1596388816833500,55.3749885559082000,54,99,101,77,83,15529,0,0,0,0,2147127588,2147770340,2147578267,2147568027,3186,2,13,52245
1354450739,5809,1002.9299926757812000,41.7075119018554700,570.5568237304688000,4.1582579612731930,55.3679695129394500,54,99,100,76,82,15528,0,0,0,0,2147124233,2147774025,2147574811,2147568374,3597,2,13,14201
1354454339,5810,1002.2899780273438000,41.6535491943359400,570.3005981445312000,4.1662201881408690,55.3761787414550800,56,98,100,77,82,15528,0,0,0,0,2147123977,2147776201,2147569609,2147571044,3537,3,13,11834
1354457939,5812,1003.3300170898438000,41.9235801696777340,570.3322753906250000,4.1652340888977050,55.3364295959472660,56,100,101,78,81,15524,0,0,0,0,2147123209,2147776000,2147573714,2147568530,24,3,13,54595
1354461539,5810,1006.5900268554688000,41.6711082458496100,569.7432250976562000,4.1835417747497560,55.3680000305175800,55,99,100,78,82,15521,0,0,0,0,2147122093,2147776128,2147574418,2147570560,3309,3,13,44566
1354465139,5806,1004.5700073242188000,41.7029113769531250,570.5280761718750000,4.1591491699218750,55.3711395263671900,56,98,101,78,83,15525,0,0,0,0,2147124123,2147773366,2147575963,2147566646,3579,2,13,28670
1354468739,5808,1008.1699829101562000,41.6084594726562500,569.9686279296875000,4.1765351295471190,55.3788490295410160,55,98,100,77,82,15521,0,0,0,0,2147125577,2147776795,2147573942,2147569270,343,2,13,16818
1354472339,5810,1009.0499877929688000,41.3207283020019500,569.4379882812500000,4.1930241584777830,55.4120597839355500,55,99,101,78,83,15518,0,0,0,0,2147120301,2147771931,2147573366,2147568822,3486,3,13,46569
1354475939,5809,1010.0999755859375000,40.7852783203125000,568.9620971679688000,4.2078089714050290,55.4861183166503900,55,98,99,78,82,15518,0,0,0,0,2147123501,2147772617,2147575414,2147567323,3281,3,13,65460
1354476356,5809,1011.9000244140625000,40.8180885314941400,569.0510864257812000,4.2050437927246090,55.4844398498535160,55,100,101,77,83,15520,0,0,0,0,2147124205,2147771062,2147569737,2147568566,409,3,13,17954
